This is the latest recevied weather packets stored in our database for station/object W6MAF. If no packets are shown the sender has not sent any weather packets the latest 10 day(s).
| Time | Temp. | Humidity | Pressure | Rain* | Wind** | Luminosity | Snow |
|---|---|---|---|---|---|---|---|
| 1788459722 | 22.22° C | 15% | - | 0 mm | 4.47 m/s, 194° | - | - |
| 1788459161 | 22.22° C | 15% | - | 0 mm | 6.71 m/s, 218° | - | - |
| 1788459127 | 22.22° C | 15% | - | 0 mm | 6.71 m/s, 218° | - | - |
| 1788458829 | 21.67° C | 15% | - | 0 mm | 6.26 m/s, 217° | - | - |
| 1788458528 | 21.67° C | 16% | - | 0 mm | 5.36 m/s, 215° | - | - |
| 1788458230 | 21.11° C | 15% | - | 0 mm | 6.71 m/s, 210° | - | - |
| 1788457933 | 21.11° C | 14% | - | 0 mm | 4.92 m/s, 219° | - | - |
| 1788457635 | 21.11° C | 14% | - | 0 mm | 5.36 m/s, 231° | - | - |
| 1788457337 | 21.11° C | 14% | - | 0 mm | 3.58 m/s, 243° | - | - |
| 1788456739 | 20.56° C | 14% | - | 0 mm | 6.26 m/s, 208° | - | - |
| 1788456441 | 20.56° C | 15% | - | 0 mm | 5.81 m/s, 212° | - | - |
| 1788456143 | 20.56° C | 14% | - | 0 mm | 5.81 m/s, 226° | - | - |
| 1788455846 | 20.56° C | 15% | - | 0 mm | 3.58 m/s, 238° | - | - |
| 1788455548 | 20° C | 16% | - | 0 mm | 3.13 m/s, 217° | - | - |
| 1788455251 | 20° C | 17% | - | 0 mm | 1.34 m/s, 181° | - | - |
| 1788454949 | 20° C | 18% | - | 0 mm | 5.36 m/s, 204° | - | - |
| 1788454651 | 19.44° C | 20% | - | 0 mm | 5.36 m/s, 214° | - | - |
| 1788454354 | 19.44° C | 21% | - | 0 mm | 4.47 m/s, 215° | - | - |
| 1788454057 | 19.44° C | 23% | - | 0 mm | 7.15 m/s, 211° | - | - |
| 1788453758 | 18.89° C | 25% | - | 0 mm | 5.36 m/s, 226° | - | - |
| 1788453461 | 18.89° C | 26% | - | 0 mm | 5.81 m/s, 207° | - | - |
| 1788453160 | 18.33° C | 27% | - | 0 mm | 5.81 m/s, 233° | - | - |
| 1788452863 | 18.33° C | 29% | - | 0 mm | 4.47 m/s, 225° | - | - |
| 1788452564 | 18.33° C | 30% | - | 0 mm | 4.47 m/s, 198° | - | - |
| 1788452267 | 17.78° C | 32% | - | 0 mm | 4.92 m/s, 219° | - | - |
* Rain latest hour (hover to see other rain measurements)
** Current wind speed in m/s (hover to see current wind gust speed)